Regional Weather Roundup
Issued by NWS

Home | Current Version | Previous Version | Graphics & Text | Print | Product List | Glossary On
Versions: 1 2 3 4 5 6 7 8 9 10 11 12 13 14 15 16 17 18 19 20 21 22 23 24 25 26 27 28 29 30 31 32 33 34 35 36 37 38 39 40 41 42 43 44 45 46 47 48 49 50
000
ASUS43 KOAX 272210
RWRNE

WEATHER ROUNDUP FOR NEBRASKA
NATIONAL WEATHER SERVICE OMAHA NE
500 PM CDT MON JUL 27 2015

NOTES: SATELLITE DATA IS BEING USED TO AUGMENT CLOUD COVER ABOVE
       12000 FEET.
       "FAIR" INDICATES FEW OR NO CLOUDS BELOW 12,000 FEET WITH NO
       SIGNIFICANT WEATHER AND/OR OBSTRUCTIONS TO VISIBILITY.

  * THESE STATIONS DO NOT REPORT WEATHER SUCH AS RAIN...SNOW OR FOG.

NEZ001>004-019>022-054>056-272300-
NEBRASKA PANHANDLE

CITY           SKY/WX    TMP DP  RH WIND       PRES   REMARKS
SCOTTSBLUFF    SUNNY     92  59  33 SE14G25   29.73F HX  91
ALLIANCE       SUNNY     90  65  43 SE22      29.76F HX  92
CHADRON        SUNNY     95  62  33 S25G32    29.66F HX  96
KIMBALL        MOSUNNY   91  55  28 SE14G21   29.80F
SIDNEY         PTSUNNY   95  57  27 S15G22    29.79F HX  94
$$

NEZ057>060-069>072-079>082-272300-
SOUTHWEST NEBRASKA

CITY           SKY/WX    TMP DP  RH WIND       PRES   REMARKS
NORTH PLATTE   SUNNY     90  69  50 S18G31    29.76F HX  94
IMPERIAL       PTSUNNY   92  67  43 S20G28    29.77F HX  95
LEXINGTON      MOSUNNY   91  72  52 S16G22    29.79F HX  98
MCCOOK         MOSUNNY   94  69  44 S23G32    29.77F HX  99
OGALLALA       MOSUNNY   91  67  45 S15       29.76F HX  93
$$

NEZ005>010-023>029-035>040-094-272300-
NORTH CENTRAL NEBRASKA

CITY           SKY/WX    TMP DP  RH WIND       PRES   REMARKS
VALENTINE      MOSUNNY   93  65  39 S21G33    29.74F HX  95
AINSWORTH      PTSUNNY   92  67  43 S18G25    29.76F HX  95
BROKEN BOW     MOSUNNY   88  71  57 S18G29    29.79F HX  94
O`NEILL        SUNNY     90  67  46 S17G25    29.79F HX  93
ORD            MOSUNNY   90  70  51 S20G28    29.78F HX  95
THEDFORD       MOSUNNY   90  70  52 S18G25    29.78F HX  95
$$

NEZ041-046>049-061>064-073>077-083>087-272300-
SOUTH CENTRAL NEBRASKA

CITY           SKY/WX    TMP DP  RH WIND       PRES   REMARKS
GRAND ISLAND   FAIR      88  70  55 SE16G25   29.83F HX  93
AURORA         FAIR      89  70  54 SE15G22   29.83F HX  94
HASTINGS       FAIR      90  73  57 S15G23    29.82F HX  98
HEBRON         FAIR      89  71  55 S9        29.83F HX  94
HOLDREGE       FAIR      90  70  52 SE16      29.81F HX  96
KEARNEY *      FAIR      90  72  55 S20       29.81F HX  96
YORK           FAIR      88  73  62 S14       29.84F HX  96
$$

NEZ011>018-030>034-042>045-272300-
NORTHEAST NEBRASKA

CITY           SKY/WX    TMP DP  RH WIND       PRES   REMARKS
NORFOLK        FAIR      89  68  49 S21G26    29.81F HX  93
ALBION         FAIR      87  69  55 S16       29.82F HX  91
BLAIR          FAIR      87  71  59 S10       29.85F HX  93
COLUMBUS *     FAIR      88  70  55 S10G22    29.82F HX  92
FREMONT        FAIR      90  72  55 SE13      29.84F HX  97
TEKAMAH        FAIR      89  77  67 SE16      29.83F HX 101
WAYNE          FAIR      89  74  62 SE13G21   29.83F HX  98
$$

NEZ050>053-065>068-078-088>093-272300-
SOUTHEAST NEBRASKA

CITY           SKY/WX    TMP DP  RH WIND       PRES   REMARKS
LINCOLN        FAIR      91  74  57 S14       29.84F HX 100
OMAHA EPPLEY   PTSUNNY   90  73  57 SE16      29.84F HX  98
BEATRICE       FAIR      88  75  64 SE9       29.84F HX  98
FALLS CITY     FAIR      89  77  67 S9        29.85F HX 101
NEBRASKA CITY  FAIR      87  73  64 S9        29.86F HX  94
PLATTSMOUTH    FAIR      87  74  66 SE9       29.85F HX  95
$$

NEZ044-045-051>053-067-272300-
OMAHA AREA

CITY           SKY/WX    TMP DP  RH WIND       PRES   REMARKS
OMAHA EPPLEY   PTSUNNY   90  73  57 SE16      29.84F HX  98
BLAIR          FAIR      87  71  59 S10       29.85F HX  93
FREMONT        FAIR      90  72  55 SE13      29.84F HX  97
MILLARD        FAIR      89  74  61 SE12G18   29.84F HX  97
OFFUTT AFB     FAIR      89  74  61 SE12      29.84F HX  98
PLATTSMOUTH    FAIR      87  74  66 SE9       29.85F HX  95
WAHOO          FAIR      88  73  60 SE15      29.83F HX  96
$$



USA.gov is the U.S. government's official web portal to all federal, state and local government web resources and services.